Regional Weather Roundup
Issued by NWS Binghamton, NY

Home | Current Version | Previous Version | Text Only | Print | Product List | Glossary On
Versions: 1 2 3 4 5 6 7 8 9 10 11 12 13 14 15 16 17 18 19 20 21 22 23 24 25 26 27 28 29 30 31 32 33 34 35 36 37 38 39 40 41 42 43 44 45 46 47 48 49 50
000
ASUS41 KBGM 202110
RWRBGM

REGIONAL WEATHER ROUNDUP
NATIONAL WEATHER SERVICE BINGHAMTON NY
400 PM EST FRI JAN 20 2017

Note: "fair" indicates few or no clouds below 12,000 feet with no
significant weather and/or obstructions to visibility.

* = Station(s) that does not report precipitation, such as rain,
snow, etc, also no thunder or fog.

NYZ009-015>018-022>025-036-037-044>046-055>057-062-202200
...Central New York...

CITY           SKY/WX    TMP DP  RH WIND       PRES   REMARKS
Binghamton     CLOUDY    36  34  92 S10       29.78S WCI  28
Cortland       DRIZZLE   39  37  93 S5        29.78S
Dansville      LGT RAIN  44  40  85 SE7       29.73R
Elmira         LGT RAIN  42  37  82 CALM      29.77S
Seneca Falls   CLOUDY    43  39  87 S6        29.78S
Ithaca         CLOUDY    39  35  86 SE12      29.78S WCI  32
Hamilton       CLOUDY    37  34  87 S7        29.79F WCI  32
Monticello     CLOUDY    36  32  87 SE5       29.87S WCI  32
Norwich        DRIZZLE   37  34  87 S6        29.82S WCI  33
Oneonta        PTCLDY    36  36 100 CALM      29.80F
Penn Yan       CLOUDY    43  35  73 S8        29.75S
Rome           CLOUDY    37  33  85 E8        29.84F WCI  31
Sidney         CLOUDY    37  37 100 CALM      29.82F
Syracuse       CLOUDY    42  36  79 E8        29.78F
$$

PAZ038>040-043-044-047-048-072-202200
...Northeast Pennsylvania...

CITY           SKY/WX    TMP DP  RH WIND       PRES   REMARKS
Hazleton       LGT RAIN  34  34 100 SE6       29.85S WCI  29
Scranton       RAIN      39  38  96 N3        29.83F FOG
$$
&&
KEY
WCI = Wind Chill Index
VSB = Visibility
HX  = Heat Index
$$



USA.gov is the U.S. government's official web portal to all federal, state and local government web resources and services.